Zurück zum Katalog

SL-12 R/B

AUX MOTOR

AktivHEO
NORAD 18374·ROCKET BODY·🇷🇺 Russia

Gestartet Sep 16, 1987 von Baikonur Cosmodrome

Loading…

Nächste Überflüge (nächste 24 Stunden)

TLE

AktuellSource: Space-Track

Epoche: Sep 14, 2026, 10:07 UTC

1 18374U 87079G   26257.42206941  .00002490  00000-0  11552-2 0  9995
2 18374  64.9621 230.6529 5732715 342.0491   3.9678  4.39257966609631

Verfolge SL-12 R/B in Echtzeit mit AllMySat

Download on the App Store